RH
31 25 14 16 19 31 48 52 41 28 25 26 27 27 26 25 25 25 25 25 25 25 25 25 25 22 20 19 18 17 16 16 16 15 15 15 15 15 14 15 15 14 14 14 13 13 13 12 11 9 6 6 8 14 21 18 15 25 39 49 53 59 63 64 65 66 65 63 61 61 64 66 65 63 62 55 34 13 5 3 3 3 3 3 3
32 26 17 18 23 35 51 54 43 29 25 26 27 27 27 26 25 25 25 26 26 25 25 24 25 24 22 20 18 17 16 16 16 16 15 15 15 15 15 15 15 15 15 14 14 14 14 13 12 10 7 6 7 14 27 35 34 38 47 55 64 71 75 73 70 69 66 63 60 58 59 60 56 51 44 29 12 3 3 3 3 3 3 3 3
34 31 27 23 22 35 54 56 46 32 25 27 26 27 27 26 26 25 25 25 26 25 24 24 24 24 23 21 19 18 17 17 16 16 16 16 16 15 16 15 15 15 15 15 15 15 15 15 13 12 9 7 7 12 27 45 53 56 63 69 74 74 73 68 61 57 55 53 44 37 35 34 31 26 18 7 3 3 3 3 3 3 3 3 3
37 38 38 31 23 35 55 59 51 37 26 26 26 28 27 27 27 26 26 25 26 25 23 23 23 23 23 22 20 19 17 17 16 16 16 16 16 16 16 15 16 15 16 16 16 16 16 16 15 14 12 9 7 9 19 38 56 64 67 67 65 62 59 51 40 31 26 23 15 10 9 8 9 6 4 3 3 3 3 3 3 3 3 3 3
44 45 47 39 30 39 56 62 56 43 29 27 27 27 28 28 28 27 27 26 26 24 23 21 22 22 21 22 20 20 18 18 17 17 17 16 16 16 16 16 17 16 16 16 16 17 17 17 16 16 14 12 9 8 11 22 41 52 54 53 52 52 47 34 21 13 9 9 8 8 8 7 6 6 5 5 4 3 4 3 3 3 3 3 3
53 52 54 47 40 45 58 64 59 50 34 27 27 27 28 28 28 28 28 27 25 23 22 20 20 21 20 20 20 20 18 18 18 17 17 17 17 17 17 17 17 17 17 17 17 18 18 18 18 17 16 15 13 10 10 14 25 34 39 39 37 40 39 27 15 10 9 10 11 11 11 12 11 11 10 8 7 5 5 4 4 4 3 3 3
59 52 56 53 48 49 58 65 61 56 42 30 27 27 28 28 29 28 28 27 25 22 21 20 18 19 19 19 19 19 19 19 18 18 18 17 18 17 18 17 17 17 17 18 18 19 19 20 19 19 18 17 16 14 11 12 16 22 29 32 33 34 32 22 10 6 6 6 6 7 8 9 10 11 11 11 10 8 7 6 5 4 4 3 3
74 57 57 58 55 53 57 64 63 61 50 36 28 27 28 28 28 28 28 26 25 22 21 20 18 18 18 18 18 19 19 19 19 18 18 18 18 18 18 18 18 18 18 19 19 20 20 21 21 20 20 19 18 17 15 13 12 15 22 29 33 28 19 14 9 7 7 7 6 6 5 5 6 6 8 9 10 10 9 8 6 5 4 4 3
83 64 61 61 56 52 55 63 62 64 58 42 31 28 28 28 28 27 27 26 25 23 21 20 18 17 17 18 17 18 19 18 19 19 19 19 19 19 19 19 18 19 19 19 20 21 21 22 22 21 21 21 20 19 18 17 15 15 17 19 21 16 11 12 12 13 13 13 13 11 10 8 6 5 5 5 6 7 8 8 8 7 6 6 5
79 63 59 60 52 43 48 59 59 64 63 47 34 29 29 28 28 27 27 26 25 24 22 21 19 17 16 17 17 17 18 18 20 19 19 19 19 19 19 19 19 19 19 20 20 21 21 22 22 23 22 22 22 21 21 19 19 17 16 17 20 17 13 14 16 17 18 19 19 18 17 15 13 11 9 7 6 5 5 6 6 6 6 6 6
60 51 52 56 48 36 44 55 55 63 65 51 38 31 30 28 28 28 27 26 25 24 23 22 20 18 15 16 16 17 18 19 19 20 20 19 20 20 20 20 19 20 20 20 21 21 21 22 22 23 23 23 22 22 22 22 22 21 19 20 22 20 17 18 20 20 22 22 22 22 22 21 19 17 16 14 12 11 9 8 7 6 6 5 5
43 37 42 48 46 42 49 55 53 63 66 55 42 33 30 29 28 28 28 28 26 25 24 23 21 18 16 15 15 17 18 19 20 20 20 20 20 20 20 20 20 20 21 21 21 22 22 22 22 22 22 23 23 22 23 23 23 23 22 21 21 19 19 21 22 23 24 24 24 23 23 23 22 21 20 20 19 18 17 15 14 12 11 9 8
50 42 42 48 53 54 55 54 56 67 69 59 44 35 31 30 29 29 30 29 28 26 24 23 22 20 17 15 15 16 17 19 20 20 21 21 21 21 21 21 21 21 21 22 22 22 23 23 22 22 22 22 22 22 22 23 23 24 24 24 22 21 22 22 23 24 24 24 24 24 24 23 22 22 22 22 22 22 21 21 19 18 18 16 15
50 50 49 48 50 50 50 50 55 64 67 60 47 38 33 31 30 31 32 32 30 26 25 24 23 21 19 17 15 15 16 19 20 20 21 21 21 21 22 22 22 22 22 22 22 23 24 24 24 23 22 22 22 22 22 23 23 24 25 25 23 22 22 23 23 23 24 24 24 24 24 23 23 23 23 23 23 22 22 22 22 22 21 21 20
40 45 52 52 48 45 45 44 48 55 62 58 49 41 35 33 32 33 35 35 32 29 27 26 24 22 21 18 16 15 15 17 19 21 21 21 22 22 22 22 22 22 23 23 23 23 24 24 25 24 23 23 22 22 22 22 23 24 25 25 25 25 23 22 23 23 24 24 24 24 24 24 24 23 24 24 23 23 23 23 23 23 22 22 22
35 39 47 53 51 48 45 43 44 49 54 52 49 43 37 34 34 37 39 37 34 32 30 28 26 24 22 20 18 15 14 17 18 20 22 22 22 22 22 23 23 23 23 23 24 23 24 24 24 24 24 24 23 23 23 23 23 23 24 24 25 26 25 23 23 24 25 25 25 25 25 24 24 24 23 23 23 23 23 24 23 23 23 23 23
35 35 37 41 44 46 46 47 48 48 48 47 47 44 41 38 36 37 38 38 35 34 32 31 29 26 25 22 20 17 14 16 18 20 21 22 23 23 23 23 24 24 24 24 24 24 24 24 24 24 24 24 24 24 24 24 24 24 25 24 23 24 26 25 24 24 25 25 25 25 26 26 25 25 24 24 23 23 23 23 23 23 23 23 23
37 35 32 32 33 35 37 41 46 49 48 49 50 47 43 40 38 38 38 37 36 36 34 33 31 29 27 25 23 20 17 16 16 19 20 22 23 24 24 24 24 24 25 25 25 25 25 25 24 24 24 24 24 24 25 25 25 25 25 26 25 24 25 25 24 24 26 26 26 26 26 27 26 26 25 25 24 24 24 23 23 23 23 23 23
35 36 33 29 28 27 27 28 32 34 36 41 49 52 49 44 41 39 39 38 37 37 36 35 34 31 29 27 26 25 28 25 19 18 19 22 24 25 25 25 25 25 25 26 25 26 25 25 25 25 25 24 25 24 25 25 25 26 26 25 25 24 24 25 25 25 26 26 27 27 26 27 27 27 26 26 26 25 25 24 24 23 23 23 23
31 33 35 33 30 29 27 25 25 25 26 28 33 41 44 46 46 43 39 39 38 38 37 37 36 34 32 31 30 35 42 36 24 18 18 21 24 25 26 26 26 26 26 26 26 26 26 27 26 26 26 26 26 25 26 26 26 26 26 25 25 25 25 24 25 27 27 26 27 28 27 27 27 27 27 26 26 26 26 25 25 25 25 24 24
28 28 32 36 34 32 31 29 28 28 30 29 28 29 29 32 44 49 44 40 40 39 39 38 38 36 36 35 36 43 45 38 29 22 18 20 23 25 26 27 26 27 27 27 27 27 27 28 28 28 28 27 27 27 27 26 26 26 26 26 26 25 26 26 26 28 30 29 27 28 28 27 27 27 27 27 27 26 27 26 26 25 25 25 25
23 22 24 31 34 36 36 34 33 32 32 32 32 31 31 34 45 53 49 44 42 41 42 41 41 41 41 41 42 45 43 38 34 28 22 20 23 25 26 27 26 27 27 27 28 28 28 28 29 29 29 29 29 28 28 28 27 27 28 27 28 27 27 27 27 28 31 32 29 28 28 27 27 28 28 27 27 27 27 27 27 26 25 25 25
16 18 23 33 40 42 40 39 39 39 38 38 37 37 40 47 54 57 53 47 44 44 44 44 46 47 48 50 50 50 48 46 42 37 29 22 22 25 26 26 26 27 27 27 27 28 28 28 29 30 30 29 29 29 29 29 29 29 29 28 29 29 28 27 28 30 31 33 31 29 29 28 28 28 28 28 28 27 27 27 27 26 26 26 25
11 13 21 33 44 49 47 46 46 45 46 47 47 46 47 54 61 61 57 50 47 46 46 48 50 53 56 57 56 56 55 54 52 48 40 29 24 25 26 26 26 26 26 26 26 27 27 28 29 29 30 30 30 30 29 29 31 32 29 29 30 32 38 35 29 31 34 35 33 30 30 31 30 29 28 29 28 28 28 28 28 27 27 27 26
9 10 14 21 33 43 47 50 54 54 52 53 53 53 54 61 68 65 60 55 50 48 47 48 51 57 61 59 57 57 56 56 58 56 48 36 27 26 27 27 26 26 26 26 25 26 27 27 28 29 30 30 30 30 30 31 34 34 30 30 32 37 50 49 37 36 42 43 38 34 32 33 34 33 31 30 30 30 30 29 29 28 28 27 27
9 10 12 14 19 24 33 48 61 64 61 60 57 57 60 66 72 69 63 57 53 51 52 54 57 61 61 58 57 57 59 61 64 63 56 43 30 27 28 27 26 26 25 26 26 25 26 27 27 29 29 29 30 30 31 32 35 36 33 36 39 41 52 59 53 50 53 53 48 42 38 35 35 35 34 33 31 31 31 30 30 29 28 28 27
10 9 12 13 13 13 27 52 71 80 78 71 66 64 66 67 70 73 70 63 57 56 59 62 64 61 55 55 59 61 64 67 69 69 67 56 38 27 26 28 27 26 26 26 26 26 26 27 27 27 28 28 29 30 31 31 34 36 35 39 43 42 48 58 61 61 60 61 60 51 44 40 37 36 35 35 34 32 31 31 30 29 28 28 27
12 9 11 12 15 24 43 66 80 88 88 80 74 70 68 67 70 77 78 70 63 61 63 65 62 56 52 56 62 65 68 69 69 71 72 67 54 37 26 26 28 26 27 26 26 27 26 26 26 27 27 28 29 29 30 28 30 33 34 38 40 41 48 59 65 66 65 67 66 58 51 46 41 38 37 37 36 33 32 31 30 28 28 27 27
14 12 15 15 24 44 60 71 72 75 86 83 74 74 73 73 80 84 85 79 70 67 66 64 59 53 55 59 65 68 70 71 72 72 71 70 69 59 39 28 28 28 27 27 27 26 27 26 26 27 27 28 29 28 27 27 29 31 33 35 39 45 53 64 71 71 71 71 67 61 58 56 50 45 40 38 37 35 32 30 29 27 27 27 26
14 16 22 23 34 51 59 64 60 62 82 84 73 75 77 79 88 90 90 84 74 70 65 58 55 55 58 62 67 70 71 75 74 71 70 70 74 77 64 39 27 29 29 27 27 27 28 27 27 28 28 28 28 28 28 29 31 31 34 39 49 59 63 69 74 74 73 71 66 63 64 63 58 51 45 41 39 37 33 30 28 27 27 27 26
15 17 25 31 41 48 51 61 65 70 83 85 74 75 82 83 85 87 88 82 71 66 59 51 52 57 60 63 68 69 71 76 74 70 69 70 74 77 73 52 32 30 30 29 30 29 28 29 29 29 28 28 28 28 28 31 35 40 49 58 66 70 70 72 75 74 72 71 69 68 67 65 60 54 50 47 44 41 35 30 28 27 27 26 26
16 22 27 31 42 43 50 64 73 81 87 84 72 72 86 87 81 84 85 79 68 62 57 52 54 59 63 65 69 69 73 76 76 76 71 69 74 74 70 61 40 30 31 31 31 30 31 30 29 31 32 33 32 34 39 46 53 58 65 70 72 72 71 73 75 72 71 72 71 70 67 64 61 58 57 55 53 48 41 35 32 32 32 32 31
24 31 31 34 43 43 54 70 76 83 85 83 78 77 87 88 83 84 81 76 68 61 59 57 60 65 67 67 69 72 74 74 76 79 77 71 72 72 73 68 46 32 36 35 35 37 35 33 35 45 50 48 47 51 59 65 66 68 72 74 73 73 74 75 77 72 69 71 71 70 68 65 63 61 61 60 60 57 53 50 48 46 45 43 42
32 36 38 39 47 50 57 73 81 85 86 86 88 85 85 87 84 79 76 74 70 63 60 62 67 72 72 69 72 76 74 74 75 77 80 75 71 73 77 78 64 55 58 56 59 59 51 50 57 64 65 62 62 64 69 70 69 71 76 78 76 75 73 73 75 72 70 72 72 72 71 69 67 65 64 64 63 62 61 60 58 56 53 51 50
36 44 51 49 52 58 62 73 79 83 89 89 88 84 83 86 80 78 81 76 69 64 63 68 72 74 75 73 74 76 74 75 75 75 79 76 74 76 79 83 80 76 75 73 78 77 70 70 68 67 71 71 69 67 67 69 71 72 75 80 77 71 67 65 67 69 70 73 74 74 73 72 71 69 69 69 68 67 66 63 61 60 59 56 54
40 52 62 61 59 63 68 76 81 84 89 86 83 80 80 82 78 81 84 73 69 69 66 69 73 75 76 73 72 72 74 77 76 76 78 76 76 79 81 83 79 78 80 76 78 77 73 71 67 67 73 74 73 70 71 73 73 73 75 78 73 64 60 59 63 66 68 72 74 74 74 74 75 74 74 73 73 72 70 67 65 65 64 61 59
48 53 56 64 66 67 74 84 88 85 83 81 80 76 74 79 80 84 81 70 71 72 69 69 70 75 76 74 73 73 76 79 81 81 79 77 78 79 80 80 77 79 83 78 75 74 69 67 68 74 75 75 76 73 74 78 77 75 73 73 67 61 58 57 63 67 70 74 74 74 76 77 78 78 78 78 78 77 75 73 71 70 68 66 64
53 51 45 59 71 74 82 90 88 79 74 73 71 68 69 77 85 88 80 72 71 70 69 69 68 71 73 74 75 77 79 78 82 84 81 77 78 80 80 80 79 80 83 78 75 75 73 71 71 76 77 75 72 69 74 81 78 72 68 69 65 59 60 61 66 72 75 76 74 74 79 80 80 82 82 81 81 81 82 81 77 74 72 70 68
47 44 41 58 71 78 87 90 84 74 70 66 63 67 72 82 95 93 81 74 73 70 70 70 69 72 73 74 76 79 79 78 80 81 80 78 79 82 80 79 78 77 79 76 74 76 78 79 77 79 80 75 70 67 75 79 73 71 69 66 64 63 67 68 69 73 76 77 77 78 81 82 81 82 82 82 83 84 84 81 77 76 74 73 72
42 37 41 56 65 73 84 85 78 70 66 62 62 69 75 84 92 89 80 75 74 73 74 75 75 74 74 73 75 77 75 77 80 78 78 79 80 81 79 77 76 76 76 74 75 77 78 82 83 84 82 73 70 69 74 74 68 71 73 66 63 69 72 68 69 73 73 75 78 80 80 81 83 84 84 83 82 83 82 76 76 77 76 76 76
46 38 42 49 51 61 76 83 79 72 68 65 65 70 71 70 70 72 73 72 73 75 76 80 81 77 75 74 75 77 77 80 81 79 79 80 81 80 77 74 74 76 76 75 76 76 77 80 81 88 85 71 68 69 70 69 65 67 73 70 65 69 71 67 69 73 74 73 76 79 77 77 81 83 86 84 80 82 83 81 79 79 77 77 75
51 42 43 47 43 50 65 73 74 72 70 67 66 68 66 64 62 64 69 72 77 78 77 79 80 77 75 75 77 80 83 85 84 81 80 80 81 79 77 76 77 78 78 77 77 77 80 80 79 86 82 66 60 62 60 61 66 68 74 76 67 65 69 70 73 77 79 76 75 79 76 76 80 81 86 84 78 82 85 83 81 78 79 78 74
48 40 43 51 46 46 52 57 62 67 68 68 68 68 67 68 66 63 66 71 77 79 78 77 74 74 74 76 79 81 83 83 81 81 79 79 78 78 79 81 82 81 79 78 78 79 79 79 82 79 68 56 51 55 58 60 66 71 77 79 71 68 70 72 75 79 83 81 76 79 78 79 82 81 84 82 78 83 84 81 80 77 78 78 76
44 40 38 46 45 44 48 50 55 61 65 67 70 70 69 71 68 65 67 70 72 74 75 75 73 73 73 74 76 78 79 78 78 79 78 78 77 78 80 81 82 80 79 80 79 77 76 77 80 70 58 55 53 57 64 64 65 71 76 76 71 72 74 74 73 72 79 82 79 80 82 82 80 78 83 81 77 82 80 77 79 78 77 77 75
41 42 32 34 42 45 47 51 54 56 59 62 65 65 63 66 66 67 69 68 68 70 72 73 71 70 72 73 74 76 76 76 78 77 77 78 77 78 79 79 79 76 75 77 76 74 74 75 73 62 55 56 57 61 64 64 66 68 69 66 66 70 73 75 73 70 76 83 83 83 82 80 77 78 83 79 75 79 77 73 76 75 73 76 77
41 44 32 29 41 46 46 52 60 62 62 62 63 64 63 66 67 66 69 70 69 70 72 72 69 70 73 72 73 76 75 76 76 76 76 77 75 75 78 78 74 71 70 71 72 71 65 64 63 58 55 55 58 62 62 62 62 61 62 61 66 72 73 73 71 70 77 83 83 81 81 79 77 78 78 74 73 76 76 72 70 69 68 73 75
45 46 33 26 36 44 44 50 64 70 68 63 63 65 65 67 69 69 72 74 73 72 71 71 71 70 70 71 72 73 74 73 72 74 74 72 71 71 72 73 67 62 65 66 64 60 55 56 58 55 56 58 59 61 62 63 59 56 59 61 64 69 71 70 69 72 78 79 76 78 81 78 76 78 75 73 73 71 71 70 68 67 65 67 69
50 43 30 23 33 44 40 41 58 67 62 59 61 63 64 66 71 75 76 77 76 74 72 71 70 70 71 71 71 72 71 69 69 72 70 66 69 70 67 67 63 58 62 62 54 50 51 54 55 54 57 60 61 60 59 62 62 57 56 58 59 63 65 63 67 73 75 74 72 76 79 74 76 81 74 71 71 66 66 68 66 63 61 65 69
45 39 29 25 33 43 40 33 43 54 55 57 62 63 64 67 73 79 79 80 80 76 73 71 70 73 74 71 71 71 69 68 70 71 69 64 64 67 63 57 57 59 60 55 47 48 52 52 52 53 55 56 58 59 57 58 62 62 60 59 56 59 60 59 68 76 73 75 77 76 75 73 77 80 76 74 70 62 61 60 58 58 58 63 69
35 35 34 32 31 37 43 37 36 45 52 60 65 63 63 64 69 76 78 82 86 79 73 73 73 74 75 73 71 68 67 68 68 68 67 61 58 60 55 49 56 64 58 48 45 49 52 50 51 53 54 56 56 58 59 58 59 62 66 66 59 61 63 61 69 76 71 74 78 75 72 74 75 74 73 72 66 60 57 55 53 54 57 59 61
32 30 34 38 32 30 40 41 39 43 50 63 70 65 61 61 64 71 75 81 87 81 75 76 74 73 74 74 70 65 65 66 64 65 60 50 53 58 50 46 58 64 56 49 49 51 52 52 57 61 61 60 57 52 52 55 58 60 64 65 60 62 67 68 70 73 73 76 78 76 73 72 71 68 67 63 58 59 57 53 54 55 57 58 57
Wind_Speed
8 8 9 10 11 12 16 18 20 21 21 19 18 16 16 15 14 13 11 10 10 9 9 9 10 10 10 11 11 12 12 12 12 12 12 12 13 14 15 16 17 17 17 18 19 20 21 21 21 22 22 22 22 21 21 22 22 23 23 21 18 15 15 14 14 13 13 11 11 10 10 10 9 9 9 9 9 10 10 11 13 13 13 14 14
8 9 10 10 10 12 16 18 20 21 21 20 19 17 16 15 14 13 11 10 9 9 9 9 9 9 9 10 10 11 11 11 11 11 11 12 12 14 15 16 16 16 16 18 19 20 21 21 22 23 23 23 23 22 21 22 21 21 20 19 17 16 15 14 14 13 13 12 11 11 10 10 9 9 9 10 10 11 12 13 14 14 14 15 15
7 10 10 10 10 11 15 18 19 21 21 21 19 18 17 15 14 13 12 10 9 9 9 8 8 8 8 8 9 10 10 10 10 10 11 11 12 13 14 15 15 15 16 17 19 20 21 21 22 23 23 24 24 23 21 21 20 20 19 18 17 15 14 14 14 13 13 13 13 13 12 11 10 10 11 11 12 13 13 14 15 14 14 15 16
7 9 10 11 10 11 15 18 19 20 21 21 20 18 17 16 14 13 12 10 9 9 9 9 8 8 7 7 8 9 9 9 9 10 10 10 12 12 13 14 15 14 15 17 18 20 20 21 22 23 24 24 24 23 21 20 19 18 18 17 17 16 15 15 15 14 14 14 15 15 15 14 14 13 14 14 14 14 14 14 14 14 14 15 16
7 8 9 10 10 11 14 18 19 19 21 21 20 19 17 16 14 13 12 11 10 10 9 9 8 8 7 7 7 8 8 9 9 9 10 10 11 11 12 13 14 14 15 16 18 19 20 21 22 23 23 24 24 23 21 20 18 18 17 17 17 16 16 17 16 16 16 16 17 17 17 17 17 16 16 16 16 15 15 15 14 14 15 15 16
10 9 8 9 9 11 14 17 18 19 20 20 20 19 18 16 14 13 12 12 11 11 10 10 9 9 8 8 7 8 8 8 9 9 9 10 11 11 11 12 13 13 14 15 17 18 19 20 21 22 23 23 23 23 22 20 18 17 17 17 17 17 17 18 19 19 20 19 19 20 20 19 18 17 17 18 18 17 16 16 16 15 16 16 17
11 10 8 8 8 10 13 17 17 18 18 19 20 19 18 16 15 14 13 13 13 12 11 11 10 9 9 8 8 8 7 8 9 9 9 9 10 10 11 12 12 12 13 14 16 17 18 19 20 21 21 22 22 22 22 21 19 18 18 19 19 19 19 19 21 23 24 24 23 24 24 21 20 19 18 18 18 17 17 18 17 17 17 17 17
10 9 8 8 8 9 12 15 16 17 17 18 19 18 18 17 16 15 15 15 14 13 12 11 10 10 9 9 8 8 8 8 9 9 9 9 10 10 10 11 11 11 12 14 15 16 17 18 19 20 20 20 21 21 21 21 20 20 19 18 18 19 21 22 24 25 26 27 27 28 27 26 24 23 22 21 20 19 18 18 18 18 18 18 17
8 8 7 8 9 9 11 14 15 16 16 17 18 18 18 18 17 17 16 16 15 14 13 12 11 11 10 9 9 8 8 8 9 10 9 10 10 10 10 10 11 11 11 13 15 16 16 17 17 18 19 19 19 20 20 20 20 20 20 19 19 20 21 23 25 25 26 28 28 28 27 27 26 26 26 25 24 23 22 21 20 19 19 19 18
5 7 7 8 9 10 11 14 15 16 16 17 18 19 19 19 18 18 17 16 15 14 13 12 12 11 10 10 9 9 9 9 10 10 9 10 10 10 10 9 10 10 11 12 14 15 15 15 16 17 17 17 18 18 18 19 19 19 19 18 18 19 21 23 24 25 27 27 27 26 26 26 25 26 26 26 26 26 25 24 24 23 22 21 20
6 8 9 10 11 12 13 15 16 16 17 18 18 19 19 19 19 18 17 17 16 15 14 13 12 11 11 10 10 10 10 10 10 10 10 10 10 10 10 10 9 10 10 11 13 14 14 15 15 15 15 16 16 16 17 17 17 16 16 17 17 18 20 22 23 25 27 26 25 25 25 24 24 24 25 25 26 26 26 25 25 25 25 25 24
4 6 10 12 14 14 15 16 16 17 18 19 19 19 19 19 19 19 18 17 16 15 15 13 12 11 11 11 11 11 11 11 10 10 10 10 10 11 10 10 10 10 10 11 12 13 14 14 14 13 14 14 14 15 15 15 14 13 14 16 18 18 20 21 22 25 26 24 24 24 23 23 23 23 24 24 25 25 24 24 25 25 25 26 26
6 1 8 13 15 14 15 16 17 18 19 19 20 20 20 20 20 19 19 18 16 15 14 13 12 12 12 11 11 12 12 12 12 11 11 11 11 11 11 11 10 10 10 10 11 12 13 13 13 13 12 13 13 12 13 13 13 13 14 15 16 17 19 20 21 23 23 22 22 22 21 21 22 23 23 23 24 23 23 23 24 24 24 24 24
9 3 5 9 11 12 14 15 16 17 19 20 20 20 21 21 21 20 19 17 16 15 14 13 13 12 12 11 12 12 13 13 13 13 12 12 12 11 12 11 11 11 11 10 10 11 12 12 12 12 12 11 11 11 11 11 12 12 12 13 15 15 17 18 20 21 21 20 20 20 20 19 20 21 21 22 22 22 22 23 23 23 23 23 23
9 6 4 5 7 9 12 13 15 16 18 19 20 21 21 21 21 20 19 16 15 15 14 14 13 12 11 12 12 13 14 14 14 14 13 13 12 12 12 12 12 11 11 11 10 11 11 11 11 11 10 10 10 10 9 9 10 10 9 10 12 12 14 16 17 19 18 18 18 18 18 18 18 19 19 20 20 20 20 21 21 22 22 22 22
8 8 7 4 3 5 8 11 14 16 17 18 20 21 22 22 21 19 17 15 15 15 15 14 13 12 12 12 12 12 13 15 15 15 15 14 14 13 13 13 12 12 11 11 11 10 10 10 10 10 9 9 9 9 8 8 8 7 7 7 8 10 11 12 14 15 14 14 15 15 15 15 16 16 17 17 18 18 18 19 19 20 20 20 20
9 9 9 6 4 3 4 7 10 13 15 16 18 20 22 22 22 21 17 15 15 15 15 14 13 13 12 12 12 12 13 15 16 16 16 16 15 14 13 13 13 13 12 12 11 11 10 10 9 9 9 8 8 8 7 6 6 5 4 3 5 8 8 8 10 11 11 11 11 12 12 12 12 13 14 14 15 16 16 16 17 17 18 18 18
7 9 11 10 7 6 7 7 8 9 10 13 15 18 20 22 23 22 18 16 15 15 15 14 13 12 12 12 12 12 13 15 16 17 17 17 17 15 14 14 14 14 13 12 12 12 11 10 9 9 8 8 8 7 6 6 5 4 3 2 3 5 5 4 4 7 8 8 8 8 9 9 9 10 10 11 12 13 13 14 14 15 15 16 16
4 6 10 12 11 12 14 15 14 13 14 14 14 15 18 21 22 21 18 16 16 16 15 14 13 12 12 12 12 13 14 14 16 17 17 18 18 17 16 15 15 15 14 13 13 12 12 11 10 9 9 8 7 7 6 6 5 5 4 3 2 2 2 1 1 2 4 4 5 4 5 6 6 6 7 8 9 10 10 11 11 12 13 13 13
4 5 7 10 12 14 17 19 19 18 19 20 20 18 18 19 20 21 19 18 17 17 15 14 13 13 13 13 13 13 13 13 14 16 18 19 19 18 17 17 16 16 15 14 14 13 12 12 11 10 9 9 8 7 7 7 6 6 6 5 4 3 3 2 2 3 2 2 2 2 1 3 3 4 4 5 5 6 6 7 8 8 9 10 11
6 6 7 9 11 14 16 19 21 20 20 22 24 25 25 24 22 21 20 19 19 18 16 14 14 13 13 13 13 13 13 13 13 14 17 19 20 19 19 19 18 17 17 16 15 14 13 13 12 11 10 10 9 9 8 8 8 9 8 8 7 5 4 5 5 6 5 5 4 2 2 1 1 1 1 2 2 3 3 4 4 5 6 7 7
8 7 7 9 10 12 14 16 19 20 20 21 24 26 27 26 23 21 20 20 20 19 17 15 14 14 14 13 13 13 12 11 12 13 16 19 20 20 20 20 20 18 18 17 16 15 14 14 13 12 12 11 11 10 10 10 11 11 11 10 9 7 6 7 8 9 8 8 7 6 6 5 3 3 2 1 1 1 2 2 2 2 3 3 4
6 7 7 9 11 12 13 13 16 19 20 22 24 25 25 24 23 21 20 20 20 19 17 16 15 14 13 12 11 11 10 10 11 12 14 17 20 21 22 22 21 20 19 19 18 17 16 15 14 14 13 13 13 12 12 13 13 12 11 12 11 9 9 9 10 11 11 10 10 10 10 8 7 6 5 4 4 4 3 3 3 2 2 2 2
5 5 6 8 10 12 13 14 16 18 20 21 22 22 23 24 22 20 20 21 21 19 18 17 15 13 12 10 10 10 10 10 11 12 13 16 19 21 22 23 22 21 21 20 19 18 17 16 15 15 15 15 14 14 15 15 14 11 12 14 13 12 12 11 12 13 13 13 13 13 13 11 10 9 8 7 6 6 6 5 5 4 4 4 3
4 3 5 7 9 11 13 16 18 19 20 20 20 21 23 23 21 20 20 21 20 19 19 18 15 13 11 10 10 9 10 11 11 12 14 17 19 21 22 23 23 22 21 21 20 19 18 18 17 17 17 17 17 17 16 16 14 11 13 14 14 15 15 11 12 14 15 15 15 16 15 14 13 12 11 10 9 8 8 8 8 7 6 6 5
2 2 5 7 9 11 14 19 21 20 21 19 19 21 23 22 20 20 20 20 18 17 17 16 15 13 11 10 9 9 10 10 10 12 15 17 19 21 23 24 23 23 22 21 20 19 19 18 18 19 19 19 18 17 17 16 14 13 15 14 14 16 15 10 10 13 14 14 15 16 17 16 15 15 14 13 12 11 10 10 10 9 9 8 7
2 3 5 8 10 13 17 20 20 19 19 18 19 21 22 22 20 19 17 16 16 16 16 13 13 14 12 10 9 9 10 10 10 12 14 16 18 21 23 24 24 23 22 21 20 20 19 20 20 20 19 19 19 18 19 18 15 15 16 15 15 16 14 11 11 12 13 13 15 16 16 16 17 17 16 15 14 13 12 11 11 11 11 10 10
3 5 8 11 13 16 18 19 17 17 17 17 18 20 21 20 19 18 14 14 15 15 14 13 13 14 12 10 10 10 10 10 11 12 13 15 17 19 21 23 23 23 22 21 21 21 21 21 20 19 19 19 20 20 20 19 16 17 18 16 16 17 15 12 11 12 12 12 14 15 15 15 16 17 18 17 16 15 14 13 13 12 12 12 12
6 8 10 13 15 16 16 15 15 16 17 17 17 19 20 19 18 17 14 13 14 13 13 14 14 14 12 10 11 11 10 11 11 12 13 14 15 17 19 21 22 23 22 22 22 22 21 20 19 18 19 20 22 21 20 18 17 17 18 17 17 17 14 10 9 9 10 12 13 13 13 14 15 16 17 18 17 16 15 14 14 14 14 14 14
9 11 14 16 16 15 14 14 15 16 18 18 18 19 20 19 19 17 15 14 13 13 13 13 13 13 12 11 11 10 10 10 11 13 14 15 15 16 17 18 20 22 22 22 22 21 20 18 18 19 20 21 22 20 19 18 17 17 17 17 16 15 12 10 8 8 9 11 13 13 13 13 13 14 15 16 17 16 16 15 15 15 15 15 15
11 13 15 17 16 14 15 16 17 18 21 20 19 19 21 21 20 19 17 14 13 13 13 12 12 13 12 12 11 10 10 10 11 13 14 15 15 16 16 16 19 21 21 22 21 20 19 19 19 20 21 22 21 19 18 17 16 15 14 14 13 11 9 8 9 10 10 11 12 13 14 13 12 13 13 14 15 15 16 16 16 16 16 15 15
11 11 13 15 15 13 15 17 18 21 23 21 19 20 22 21 21 21 18 15 14 12 12 12 13 14 14 13 11 11 10 10 11 12 12 13 14 13 13 14 18 20 20 20 20 20 20 20 19 20 21 21 19 17 16 15 14 13 13 12 11 9 7 7 9 10 10 10 9 11 13 13 13 12 12 13 13 14 15 15 15 15 15 14 14
11 8 9 12 13 14 16 17 18 20 20 20 18 20 23 20 19 20 18 16 15 13 12 13 14 14 13 12 10 10 10 11 12 12 12 14 14 12 12 13 15 18 19 20 20 19 20 20 20 22 21 18 17 15 13 13 12 12 12 11 9 9 8 7 9 9 9 9 9 10 12 13 13 13 13 12 12 13 13 13 13 13 13 12 12
10 7 7 10 12 14 17 17 17 17 17 17 16 19 21 20 20 21 19 17 15 14 13 12 13 13 12 12 10 10 11 11 13 13 14 15 15 14 14 14 14 16 18 19 19 18 19 19 20 22 19 15 15 14 11 11 11 11 11 10 9 8 8 8 10 9 9 9 9 10 11 12 12 13 13 13 12 12 12 12 11 11 11 11 11
9 5 6 10 13 15 15 16 17 16 16 15 16 19 20 21 24 23 19 17 15 13 12 11 12 12 12 12 10 10 11 11 12 13 16 18 17 15 15 15 15 15 16 17 18 18 19 19 20 21 15 11 13 11 10 10 10 10 10 9 8 7 7 8 9 9 9 9 8 9 10 11 11 12 13 12 12 12 11 11 10 10 10 10 10
6 2 5 9 12 13 14 15 15 15 14 15 17 19 19 21 23 20 15 15 15 13 12 11 11 11 11 11 9 9 11 12 13 15 17 18 17 15 16 14 13 14 15 16 17 18 18 18 20 19 12 11 11 10 9 9 10 10 10 9 7 6 6 7 7 7 9 8 8 9 9 9 10 11 11 11 11 11 10 10 10 9 9 9 9
3 0 3 7 9 11 12 13 13 13 13 15 16 18 19 19 19 14 13 14 14 12 12 11 11 11 10 10 9 9 11 13 13 16 18 17 16 15 16 14 13 15 16 16 16 16 17 17 18 17 12 12 12 10 9 9 11 11 10 9 7 6 5 5 6 7 8 8 8 8 7 7 7 8 9 8 8 9 9 9 9 9 8 8 9
1 1 3 6 9 10 11 12 14 15 13 13 15 18 19 18 15 11 12 13 12 11 12 11 12 13 11 11 12 12 13 14 14 16 18 17 16 16 17 16 15 16 17 16 14 14 14 15 17 16 12 12 11 10 9 10 12 10 8 8 7 5 4 4 5 5 6 7 7 6 5 5 5 6 6 6 7 7 8 8 8 8 7 7 8
2 3 4 6 8 8 10 13 17 17 14 14 16 18 18 17 15 8 7 8 8 9 11 12 14 14 13 13 14 15 15 15 16 17 17 16 17 18 19 18 16 17 17 15 14 13 12 13 17 17 12 10 10 9 10 10 9 7 7 6 4 4 4 4 4 3 4 5 5 5 4 4 5 5 5 5 6 6 5 5 6 6 6 6 6
3 5 6 5 5 5 8 13 14 14 13 14 15 15 12 12 12 5 3 5 8 11 14 15 16 15 15 15 16 16 15 15 17 18 16 15 17 18 19 19 17 17 15 14 14 13 12 12 16 16 11 9 9 8 9 10 7 6 6 5 3 4 4 4 4 3 4 5 4 4 4 4 5 5 5 4 5 4 3 3 4 4 5 5 4
3 5 6 4 4 6 9 11 10 11 13 13 13 11 9 11 12 7 5 7 10 13 15 16 16 15 16 16 16 16 16 17 17 17 16 15 16 18 19 19 17 16 15 14 15 14 12 12 15 15 10 8 9 9 9 9 7 6 6 5 4 5 5 5 4 4 4 5 5 4 4 4 5 5 4 4 4 4 4 4 4 4 4 4 4
5 5 3 3 4 6 9 11 9 10 13 14 13 12 13 15 13 9 9 9 9 11 13 14 13 14 16 16 15 16 16 17 17 17 16 16 17 19 19 18 16 16 15 15 13 13 12 12 14 13 10 9 8 8 8 6 6 6 5 4 4 5 5 5 5 4 5 6 6 4 3 3 4 4 3 4 5 5 4 4 4 4 4 4 4
6 7 5 5 6 4 7 9 8 10 13 15 17 17 17 14 11 10 10 8 7 8 10 10 11 13 15 15 14 15 16 16 17 16 16 16 18 19 17 16 16 16 15 13 13 13 12 12 14 12 9 9 8 8 7 7 7 6 6 4 4 5 5 5 5 5 6 6 6 5 5 5 5 5 5 5 5 5 5 4 4 4 4 4 4
6 10 9 6 5 5 6 7 7 9 13 16 19 19 16 12 11 12 11 7 6 8 9 8 10 12 13 14 15 15 17 17 16 15 16 17 17 17 16 15 16 16 14 13 13 13 12 12 13 10 9 10 9 8 8 8 8 7 7 6 5 5 5 5 5 5 7 7 6 6 7 6 5 6 6 6 5 5 5 5 4 3 3 4 3
9 10 10 7 6 8 7 7 8 10 13 17 19 19 15 12 12 13 11 7 7 9 9 8 10 10 11 13 15 17 18 17 17 16 16 16 16 15 14 14 15 15 14 14 14 13 13 12 11 10 10 10 10 9 9 9 9 9 9 7 6 6 6 5 5 6 8 8 8 8 8 7 5 6 7 7 6 6 6 5 4 4 4 4 4
14 13 12 9 9 10 7 7 10 12 13 16 18 19 16 13 13 13 11 9 8 8 9 9 9 9 10 12 15 19 20 19 18 17 17 16 16 15 14 15 15 15 15 14 14 13 14 13 11 11 10 10 10 10 9 9 9 9 9 8 7 6 6 5 6 7 8 9 9 9 9 8 7 7 8 7 7 7 6 5 5 4 4 4 4
17 16 17 12 10 11 8 9 12 14 14 14 15 16 15 14 13 13 12 10 9 9 10 10 10 10 11 12 15 19 20 19 18 17 17 16 16 15 15 16 16 16 15 14 14 14 14 13 11 10 10 10 10 10 9 9 9 10 9 8 8 7 6 6 6 8 9 9 9 10 9 8 8 8 8 7 7 7 7 6 5 5 5 5 4
18 18 18 13 11 11 10 10 12 14 13 11 12 13 13 13 13 13 12 11 10 10 11 12 13 13 13 14 17 19 19 19 18 18 17 16 15 16 15 16 15 14 13 13 14 14 13 11 10 11 10 10 11 11 10 9 9 10 9 9 8 7 7 7 7 7 8 8 9 10 10 9 9 9 8 8 8 7 6 6 6 6 6 6 6
20 20 18 14 13 13 12 11 11 13 12 11 12 12 12 12 13 13 12 11 11 11 11 13 15 15 16 16 18 19 18 18 19 18 17 16 15 15 15 14 13 11 10 11 13 12 11 11 11 11 11 11 12 12 11 10 11 10 9 9 9 8 8 8 7 7 7 7 8 10 10 9 9 9 8 8 7 7 6 6 6 6 6 6 7
21 20 21 19 15 13 13 12 12 13 12 12 13 12 12 11 11 12 12 12 12 12 12 14 16 17 17 18 19 19 17 17 18 18 17 16 15 14 14 12 11 9 9 10 11 11 11 11 11 11 12 12 12 12 11 11 12 11 10 10 10 9 8 7 8 8 8 8 9 10 10 9 9 9 9 8 7 6 6 6 6 7 7 7 8
23 20 22 22 18 14 14 14 14 15 14 13 14 14 13 11 11 12 12 12 12 12 13 15 16 17 18 19 20 19 19 18 18 17 16 16 14 13 12 12 10 10 10 9 10 11 11 11 11 12 12 11 12 12 12 12 12 11 10 10 10 10 8 8 9 9 9 9 9 10 10 10 10 9 9 8 7 7 7 7 8 7 7 8 9
Wind_Direction
242 239 223 218 216 204 199 195 194 197 194 191 190 186 182 180 175 167 159 149 138 133 126 117 109 105 104 105 104 103 100 98 94 91 88 87 85 83 81 79 77 74 73 73 73 72 70 69 69 69 69 70 71 76 81 86 92 97 102 105 106 101 96 95 94 90 87 83 78 74 71 67 67 67 61 57 53 56 61 66 69 66 70 73 73
227 229 222 228 224 206 199 195 194 197 196 192 191 188 185 183 180 171 164 159 148 143 137 129 120 113 109 108 107 106 104 103 99 95 91 89 87 85 83 81 79 77 75 74 75 73 71 69 69 70 70 70 71 75 81 87 93 96 98 98 96 92 89 86 85 85 87 87 84 79 74 69 65 65 64 62 62 65 66 68 69 67 69 72 71
220 226 228 236 231 212 199 197 196 197 197 194 194 190 187 185 183 177 169 167 161 156 148 142 133 126 120 116 113 111 110 108 106 100 95 92 90 88 86 85 83 80 78 77 77 75 73 71 69 70 70 70 70 73 80 88 93 95 96 94 91 88 85 81 78 79 82 84 85 84 81 78 73 71 71 69 67 67 67 67 68 67 69 71 71
234 230 229 233 229 212 199 198 198 198 199 196 196 193 190 187 187 183 176 176 173 169 160 155 147 142 137 130 123 119 119 116 113 106 101 96 94 92 90 88 86 83 81 80 79 78 74 72 70 69 69 69 70 73 79 86 91 93 94 93 91 87 83 80 79 79 78 78 79 78 76 75 73 70 70 69 67 66 66 67 68 70 72 73 73
254 237 222 228 223 207 199 198 199 199 200 198 198 195 192 190 190 189 185 185 183 181 172 168 161 156 154 148 137 129 128 123 120 112 107 102 98 96 94 92 91 88 85 84 82 80 77 73 71 69 69 70 70 72 77 83 89 92 93 93 91 90 87 82 80 81 80 78 77 76 73 71 70 69 69 69 68 67 67 69 71 71 73 74 75
251 241 227 229 219 203 199 198 200 200 202 201 200 198 195 193 193 194 195 194 190 189 183 179 174 167 165 162 152 142 139 132 127 120 115 108 104 102 99 97 95 92 89 88 86 83 79 76 73 71 70 71 71 72 74 79 86 89 91 90 90 92 91 87 82 81 81 79 78 77 73 71 71 71 71 71 70 69 70 71 72 72 73 74 75
243 245 242 235 217 204 200 199 201 200 203 203 203 202 199 196 195 197 200 201 198 193 189 187 183 177 173 172 164 155 150 142 136 128 123 116 111 109 105 103 101 97 93 92 90 86 82 79 76 73 72 72 72 72 74 77 82 85 89 91 91 92 94 94 89 85 83 81 78 77 75 73 72 72 73 73 73 72 72 73 73 74 74 75 76
234 248 250 235 215 207 203 201 202 202 204 205 205 204 201 197 196 198 200 204 203 197 193 193 190 186 181 179 174 168 164 154 144 137 133 126 120 117 113 110 107 103 99 97 94 90 86 83 79 76 74 73 73 74 75 77 80 84 88 90 92 93 94 94 90 86 83 80 77 75 74 73 72 73 74 74 75 75 75 75 76 77 77 78 78
237 250 252 235 215 209 206 203 204 204 204 205 206 204 201 197 197 198 200 204 205 202 196 195 196 192 187 185 182 178 176 166 153 147 144 136 131 127 123 118 114 110 106 103 100 96 90 86 83 80 78 76 75 74 74 75 77 80 84 87 89 90 90 88 86 84 81 79 76 74 74 74 73 73 73 74 75 75 76 77 78 79 80 80 80
271 253 253 239 221 213 207 204 204 204 204 205 204 203 202 199 199 199 201 204 205 204 201 198 199 196 191 189 189 188 185 175 164 158 153 145 140 137 134 128 123 118 114 109 106 102 96 91 88 85 82 80 78 76 74 74 76 80 81 81 82 83 84 83 84 83 80 78 78 77 76 75 75 75 74 74 74 74 75 76 77 78 79 79 79
294 254 241 232 218 210 204 201 201 202 203 204 203 204 203 200 201 201 202 205 204 202 202 202 200 198 194 193 195 195 191 183 175 167 160 153 149 147 144 138 132 126 121 116 112 108 102 98 94 91 88 86 83 80 78 77 78 78 75 76 78 79 80 80 81 81 80 80 80 79 78 78 77 77 77 76 76 75 75 76 76 77 77 78 78
312 252 223 211 203 200 197 194 194 198 202 203 203 204 203 202 203 203 204 204 202 200 202 203 201 198 195 195 198 198 193 189 184 175 168 162 160 157 153 148 142 135 129 125 120 115 109 105 101 96 94 91 87 84 83 83 80 75 73 77 80 80 82 82 81 81 81 81 81 80 80 80 80 79 79 78 78 77 77 76 76 76 76 76 76
44 266 202 191 188 187 188 188 191 197 201 202 202 203 204 204 204 205 205 203 199 197 198 202 204 200 197 196 197 200 197 195 191 182 177 173 171 166 161 157 150 144 139 134 129 124 118 113 108 103 102 97 93 91 90 88 84 79 76 76 77 82 86 86 84 83 83 83 82 81 81 80 80 80 79 79 79 78 77 77 76 76 76 76 76
65 84 193 187 183 185 188 188 192 198 203 203 202 204 206 206 206 207 206 202 196 193 194 200 205 203 199 197 197 201 201 200 196 189 186 183 180 174 169 165 157 153 150 145 139 133 127 122 116 112 110 104 101 100 99 97 93 86 79 78 78 82 87 87 87 86 85 85 85 83 81 80 79 79 79 79 79 78 77 76 76 75 75 75 76
89 105 158 181 189 196 198 201 204 206 207 206 206 207 208 208 208 209 207 200 195 193 194 199 202 202 200 198 199 202 202 203 203 195 191 192 188 183 177 172 165 162 159 155 150 143 137 132 126 122 118 113 114 114 111 107 103 96 87 84 80 79 86 88 88 88 87 86 85 84 82 80 80 80 79 79 78 78 77 76 76 75 74 74 74
109 116 126 128 172 196 211 220 221 219 213 211 211 211 212 211 210 209 206 199 196 196 197 198 198 200 201 200 200 203 203 204 207 201 196 197 195 191 185 178 173 170 168 164 160 156 149 143 137 133 129 126 129 128 123 119 115 108 99 92 85 82 86 89 91 90 88 87 85 84 82 80 80 80 80 80 79 78 77 77 76 75 75 74 74
131 147 150 140 147 175 219 233 236 233 229 226 222 219 218 217 217 215 211 204 201 201 200 199 198 200 202 202 201 203 204 205 208 206 201 200 199 197 192 185 180 178 176 173 170 167 161 157 152 146 144 143 146 146 142 138 136 130 120 106 96 90 83 84 96 95 90 88 86 85 83 80 79 80 80 80 80 78 77 77 76 75 75 74 74
137 163 170 172 185 205 223 237 245 245 249 249 244 238 233 230 227 223 218 210 206 206 205 202 201 200 202 203 201 202 204 205 208 209 207 204 202 200 198 193 186 185 183 182 181 176 172 169 166 162 159 161 164 165 165 165 167 173 175 160 113 94 81 76 95 102 97 91 86 87 87 84 81 79 79 80 79 78 77 75 74 74 73 73 71
121 154 173 187 199 213 225 235 246 256 265 268 266 259 251 245 239 233 226 217 213 210 208 205 202 200 201 202 201 202 203 205 207 209 210 208 205 200 200 199 194 191 190 189 189 185 181 179 178 177 176 177 182 184 184 190 198 205 208 204 155 110 108 117 136 124 112 104 97 91 92 90 83 77 76 77 77 77 76 75 74 72 71 71 69
114 136 170 192 202 213 224 232 241 251 259 264 268 268 265 261 255 246 236 226 219 214 210 205 200 199 199 199 200 201 202 203 206 210 213 211 208 202 201 203 200 197 195 195 195 193 190 189 188 188 190 192 195 199 203 211 218 222 224 222 210 194 200 224 243 237 226 185 137 110 93 95 88 78 72 68 71 74 74 74 74 73 70 69 68
123 129 158 187 203 212 218 225 233 241 249 254 257 260 261 262 261 256 245 233 224 217 211 204 199 197 197 198 199 202 203 205 207 211 214 213 210 205 203 206 205 201 199 199 200 199 198 197 196 197 200 202 204 207 213 221 227 232 233 236 236 229 231 246 255 253 250 248 240 231 238 230 169 105 67 52 51 54 58 64 66 66 66 65 65
131 135 155 185 201 209 217 222 227 234 238 242 244 248 251 253 255 256 248 236 227 219 210 203 198 196 196 198 201 205 207 208 209 211 213 213 212 207 205 210 210 205 202 203 203 202 202 202 201 203 206 210 211 212 218 226 230 238 244 250 257 253 247 253 262 264 258 253 251 250 247 246 246 249 258 277 316 328 348 8 27 37 41 43 47
132 143 163 188 201 208 218 224 227 228 231 236 238 241 244 246 249 249 245 237 229 220 211 204 198 195 196 197 203 210 213 213 212 211 212 213 212 209 207 212 213 209 207 206 206 206 205 206 206 207 211 214 216 219 224 230 235 246 255 260 266 267 262 259 265 269 267 260 256 256 253 251 250 254 259 261 271 279 288 298 305 317 332 342 352
134 145 171 189 201 209 217 225 229 229 231 236 238 239 242 244 244 243 241 235 229 222 214 208 201 198 200 203 210 217 220 222 220 215 214 214 213 211 209 213 214 211 210 209 210 209 209 210 210 211 214 218 220 225 228 233 243 254 258 265 270 277 284 272 265 270 270 266 261 258 258 257 256 257 260 261 263 269 276 280 282 284 285 292 299
148 164 188 195 203 211 220 223 225 227 231 236 239 240 242 244 242 238 237 234 231 228 223 216 210 208 206 211 218 223 228 231 227 216 215 216 214 212 211 214 216 213 212 211 212 212 212 212 214 216 219 221 223 227 233 239 248 253 255 266 270 279 300 293 270 270 268 266 263 260 259 258 258 258 260 262 261 262 266 271 274 274 272 274 278
166 198 216 220 222 231 235 226 222 224 226 231 237 240 240 241 241 238 237 237 235 230 226 220 218 219 215 218 225 231 234 234 227 215 214 217 215 213 211 213 216 215 213 212 213 214 214 215 216 220 222 226 229 232 239 245 250 252 255 265 269 280 304 303 271 267 267 270 268 262 259 257 257 258 259 261 261 259 259 263 267 270 270 268 268
231 248 248 252 252 249 240 230 227 226 226 228 233 237 236 237 241 243 241 237 233 228 225 221 222 227 226 226 231 236 235 234 229 219 215 216 216 216 214 213 214 215 213 211 212 214 215 217 219 222 225 230 235 237 241 247 249 252 258 263 267 278 293 291 272 265 267 274 270 264 260 257 256 258 259 259 258 259 258 258 261 264 268 269 267
262 255 259 265 259 246 235 231 231 232 230 228 234 237 235 236 240 244 243 235 230 227 223 221 225 231 231 230 237 242 243 243 239 227 219 218 218 217 215 213 212 213 213 211 211 213 215 219 222 225 228 231 236 238 241 246 249 252 258 261 266 277 285 284 273 263 260 265 266 264 263 260 257 257 259 259 258 258 257 256 258 260 263 265 267
264 254 256 260 251 239 234 231 231 235 229 226 237 240 235 234 235 234 229 227 223 216 211 214 225 233 233 235 243 249 251 250 244 233 224 219 217 215 214 211 210 211 212 212 212 214 216 220 224 227 229 232 236 239 242 246 250 252 258 261 267 275 279 280 271 256 248 251 255 258 264 265 260 257 257 258 259 258 258 257 257 257 259 261 264
266 257 252 252 243 235 233 232 235 236 226 225 234 236 235 232 232 230 217 206 200 199 200 206 225 239 242 244 249 252 249 244 238 232 224 217 212 211 210 206 205 207 208 211 213 215 217 220 223 225 228 232 236 238 242 246 250 254 258 262 267 271 273 273 262 247 248 254 253 252 260 267 264 261 258 258 259 259 260 259 258 257 258 259 260
268 260 254 249 240 233 234 239 245 235 219 220 229 231 232 229 233 235 224 201 181 188 196 205 232 246 248 251 254 255 247 237 232 231 226 216 213 213 210 201 199 201 204 208 211 214 215 217 220 224 228 232 236 239 242 247 251 255 256 259 263 267 268 267 254 252 263 266 259 253 255 262 265 263 261 261 260 260 260 259 259 259 259 260 260
277 270 261 248 237 232 238 246 248 235 218 213 224 232 228 225 232 230 222 204 181 185 196 211 235 244 249 252 255 253 241 233 229 229 230 221 214 212 211 206 199 197 199 203 208 210 212 216 218 225 228 230 234 237 241 247 249 250 251 255 256 258 266 269 258 259 266 268 263 253 250 256 262 263 263 262 261 261 261 260 260 260 261 262 262
293 289 261 238 230 231 239 242 240 235 224 212 219 231 224 217 221 214 208 202 190 192 204 219 231 238 246 248 252 248 239 241 235 228 231 226 216 208 208 213 205 199 198 197 204 208 209 212 214 221 222 222 229 231 239 246 245 245 246 250 248 249 263 270 265 266 270 269 262 251 249 256 260 262 263 262 262 262 262 262 262 262 262 262 262
307 298 253 232 234 239 241 236 231 230 224 214 211 220 216 206 204 201 198 197 193 200 208 219 230 236 243 245 250 245 238 244 236 223 227 227 219 208 206 210 203 202 202 192 193 201 204 207 214 221 216 213 226 226 231 238 236 239 240 245 249 252 262 267 266 266 267 266 259 254 256 258 257 260 263 264 264 264 264 264 263 263 262 261 261
316 301 242 234 243 249 242 226 223 225 220 212 208 215 212 203 203 200 194 193 196 204 210 219 230 236 242 247 249 238 228 231 225 214 219 223 217 207 201 203 198 201 208 194 187 197 203 205 217 225 215 210 227 221 222 231 231 237 239 246 254 255 260 264 266 264 262 261 258 258 257 255 255 258 260 261 262 263 264 263 262 261 258 258 258
323 302 225 231 242 243 228 213 217 222 219 211 207 214 210 207 211 201 188 195 198 202 212 220 229 234 240 245 243 231 224 223 218 208 211 213 208 202 200 204 204 206 215 206 196 202 206 207 219 228 213 203 222 221 222 230 235 240 239 242 246 249 256 260 263 262 260 259 259 260 255 250 253 257 257 256 257 258 260 260 259 258 254 254 256
343 339 221 224 232 229 210 204 210 206 205 206 207 216 215 219 222 200 184 199 202 208 219 226 234 239 242 245 242 237 228 221 215 210 211 209 200 199 204 208 212 215 220 216 208 211 215 215 223 229 211 197 209 217 223 229 234 236 233 235 234 239 251 257 261 259 254 253 254 255 251 249 253 255 251 248 249 247 249 253 255 254 249 249 254
20 336 259 225 222 214 197 194 195 189 198 212 221 226 225 233 235 205 191 204 207 215 226 233 239 242 246 247 245 241 230 219 214 214 215 213 204 201 207 209 212 218 221 220 217 219 224 224 226 227 211 197 203 214 220 220 222 222 224 231 227 226 234 246 251 243 242 245 247 249 248 247 246 245 241 241 243 238 240 247 251 252 246 248 253
332 316 268 233 224 209 196 197 194 192 209 226 228 229 226 233 238 215 194 213 220 226 232 233 234 240 243 242 241 237 228 219 217 217 216 213 208 205 208 207 210 219 221 221 224 227 233 238 236 230 212 195 199 216 224 218 213 204 211 220 210 206 213 232 240 225 231 233 236 244 236 230 231 233 235 233 235 235 235 241 246 247 246 251 256
310 286 270 252 236 213 205 211 206 206 223 232 233 236 231 233 244 232 197 244 252 244 238 230 229 235 236 234 234 229 221 218 218 216 212 211 210 210 209 205 209 220 222 224 230 232 237 245 240 229 214 198 193 212 227 222 215 204 206 208 195 199 202 219 229 219 225 223 228 231 212 211 220 223 220 211 219 229 222 219 231 237 240 246 252
316 295 293 293 252 219 215 222 222 222 230 236 239 242 247 262 280 302 318 296 273 257 246 234 231 231 227 226 224 219 214 215 215 209 206 211 214 213 208 204 212 221 224 231 234 230 234 244 236 220 213 211 197 205 221 220 219 218 213 200 190 199 200 214 221 218 216 211 217 218 203 209 214 213 206 199 211 219 208 200 216 231 230 234 243
310 302 278 265 243 199 208 226 231 236 241 247 247 246 257 271 286 302 309 304 292 274 252 234 228 222 219 218 215 215 214 210 206 202 203 207 206 205 205 208 218 222 225 229 226 224 234 244 233 213 208 222 212 209 223 227 225 227 225 211 196 193 194 205 206 210 213 205 203 197 196 211 207 202 194 198 209 214 213 205 209 224 228 232 234
285 277 238 245 265 202 193 212 218 233 247 253 253 254 257 261 271 278 280 286 282 267 246 223 215 214 214 214 214 214 209 200 196 196 198 197 195 199 204 210 217 220 220 219 216 223 234 234 224 208 206 223 223 217 222 225 222 224 228 224 207 189 190 199 194 200 210 202 191 184 191 200 193 191 193 196 201 207 218 214 211 224 234 237 232
256 263 236 213 250 237 206 209 211 223 239 247 253 259 259 257 265 270 274 277 253 240 235 216 206 208 208 208 208 203 196 191 189 188 189 190 192 199 204 207 211 213 211 212 216 221 222 219 215 208 210 218 218 216 215 216 217 219 223 223 217 200 196 201 199 211 217 203 191 190 191 192 189 189 194 195 194 205 220 219 219 232 239 244 243
241 258 241 187 206 235 223 218 223 229 239 248 257 264 268 269 270 272 277 273 247 234 228 210 198 198 194 194 195 191 188 186 183 183 187 191 194 197 199 198 202 206 208 211 213 212 212 213 212 211 214 216 214 213 212 213 215 217 224 227 223 217 210 202 202 217 218 202 193 193 192 193 193 190 193 196 197 210 224 228 234 240 237 239 245
239 242 237 207 214 231 222 218 228 237 248 254 258 263 267 267 265 267 268 257 235 224 214 202 197 193 183 181 183 183 182 180 178 183 188 192 192 190 194 195 199 206 209 210 209 209 212 213 213 214 214 216 216 215 213 212 214 219 225 226 218 218 220 212 206 208 210 203 197 195 193 195 194 191 198 205 207 216 227 239 251 257 254 250 253
240 231 227 219 222 226 212 215 231 239 248 252 252 258 262 260 258 257 254 242 226 214 205 197 196 190 177 173 174 174 175 173 175 184 187 188 190 191 197 200 204 208 206 209 213 216 216 212 210 211 210 213 215 215 214 209 211 218 222 222 215 213 223 226 213 199 197 201 199 195 193 194 197 197 203 213 219 223 230 244 255 260 263 263 266
237 231 226 220 224 226 212 211 230 240 241 243 245 250 255 253 250 245 235 225 217 212 203 191 187 183 174 170 168 167 170 171 176 183 185 187 191 195 199 201 204 206 206 213 219 219 218 211 207 209 209 211 212 214 214 209 209 214 218 223 219 210 218 229 222 204 196 199 201 199 196 196 198 200 207 216 221 224 229 241 252 261 269 272 274
240 235 233 231 231 231 225 216 224 236 235 235 244 248 248 244 241 239 226 210 206 207 199 186 180 178 176 172 169 169 172 174 178 181 183 186 189 191 193 194 195 200 209 220 220 217 216 211 209 213 212 212 213 216 215 212 211 209 209 217 222 215 216 225 225 219 212 206 204 204 201 198 198 203 209 214 218 225 232 238 249 261 270 277 278
248 240 234 236 236 233 237 232 224 233 237 235 241 244 240 235 232 231 223 208 201 199 194 184 177 176 178 175 173 172 171 174 179 182 184 185 185 186 185 185 188 191 202 215 216 214 214 214 214 215 215 216 217 218 215 216 216 210 202 205 215 216 214 220 222 225 228 221 213 209 205 201 202 207 211 212 219 233 240 239 245 252 257 268 274
253 246 236 235 236 232 237 243 236 234 237 237 240 239 231 225 220 217 214 206 199 197 192 184 178 175 175 175 176 176 174 175 180 184 186 184 183 185 182 183 190 192 196 204 208 210 210 213 216 216 217 220 222 221 217 216 217 213 206 206 213 215 213 215 215 217 225 225 217 210 207 206 205 208 214 220 221 229 242 246 247 249 250 259 267